• Em Portugal
  • Lista de países
  • Para 7 dias
  • Temperatura da água
  • Mapas de satélite
  • Mapa do tempo
  • Widgets de tempo
  • user-avatar
    Iniciar Sessão

    Previsão horária em Baalbek

    Hoje, 22 Outubro, Segunda-feira

    Tempo Temperatura Precipitação Vento Pressão Humidade
    00:00 +16°C° 0 mm 1 m/s 661 mmHg 77%
    01:00 +16°C° 0 mm 1 m/s 661 mmHg 77%
    02:00 +14°C° 0 mm 0 m/s 660 mmHg 77%
    03:00 +15°C° 0 mm 1 m/s 661 mmHg 76%
    04:00 +15°C° 0 mm 1 m/s 661 mmHg 75%
    05:00 +15°C° 0 mm 1 m/s 661 mmHg 74%
    06:00 +16°C° 0 mm 1 m/s 661 mmHg 66%
    07:00 +18°C° 0 mm 1 m/s 662 mmHg 57%
    08:00 +20°C° 0 mm 1 m/s 662 mmHg 49%
    09:00 +20°C° 0 mm 2 m/s 663 mmHg 44%
    10:00 +21°C° 0 mm 2 m/s 663 mmHg 39%
    11:00 +23°C° 0 mm 2 m/s 663 mmHg 35%
    12:00 +23°C° 0 mm 2 m/s 663 mmHg 34%
    13:00 +24°C° 0 mm 2 m/s 663 mmHg 33%
    14:00 +24°C° 0 mm 2 m/s 663 mmHg 32%
    15:00 +24°C° 0.1 mm 2 m/s 662 mmHg 34%
    16:00 +23°C° 0.1 mm 2 m/s 662 mmHg 37%
    17:00 +21°C° 0.1 mm 2 m/s 662 mmHg 40%
    18:00 +21°C° 0 mm 2 m/s 661 mmHg 41%
    19:00 +20°C° 0 mm 2 m/s 661 mmHg 42%
    20:00 +20°C° 0 mm 2 m/s 661 mmHg 44%
    21:00 +20°C° 0 mm 2 m/s 661 mmHg 45%
    22:00 +19°C° 0 mm 2 m/s 661 mmHg 47%
    23:00 +19°C° 0 mm 2 m/s 661 mmHg 48%

    Amanhã, 23 Outubro, Terça-feira

    Tempo Temperatura Precipitação Vento Pressão Humidade
    00:00 +19°C° 0.3 mm 2 m/s 661 mmHg 50%
    01:00 +18°C° 0.3 mm 2 m/s 661 mmHg 53%
    02:00 +18°C° 0.3 mm 2 m/s 660 mmHg 55%
    03:00 +18°C° 0.3 mm 2 m/s 660 mmHg 56%
    04:00 +18°C° 0.3 mm 2 m/s 660 mmHg 57%
    05:00 +17°C° 0.3 mm 2 m/s 660 mmHg 58%
    06:00 +18°C° 0.3 mm 2 m/s 660 mmHg 54%
    07:00 +19°C° 0.3 mm 2 m/s 661 mmHg 50%
    08:00 +20°C° 0.3 mm 2 m/s 661 mmHg 46%
    09:00 +21°C° 0.3 mm 3 m/s 661 mmHg 43%
    10:00 +22°C° 0.3 mm 3 m/s 661 mmHg 41%
    11:00 +24°C° 0.3 mm 3 m/s 661 mmHg 38%
    12:00 +24°C° 0.3 mm 3 m/s 661 mmHg 38%
    13:00 +25°C° 0.3 mm 4 m/s 661 mmHg 38%
    14:00 +25°C° 0.3 mm 4 m/s 660 mmHg 37%
    15:00 +24°C° 0.1 mm 3 m/s 660 mmHg 40%
    16:00 +23°C° 0.1 mm 2 m/s 659 mmHg 43%
    17:00 +21°C° 0.1 mm 2 m/s 659 mmHg 46%
    18:00 +22°C° 0 mm 1 m/s 659 mmHg 49%
    19:00 +21°C° 0 mm 1 m/s 659 mmHg 52%
    20:00 +20°C° 0 mm 1 m/s 659 mmHg 54%
    21:00 +20°C° 0 mm 1 m/s 659 mmHg 55%
    22:00 +20°C° 0 mm 1 m/s 659 mmHg 55%
    23:00 +20°C° 0 mm 1 m/s 659 mmHg 56%

    Depois de amanhã, 24 Outubro, Quarta-feira

    Tempo Temperatura Precipitação Vento Pressão Humidade
    00:00 +18°C° 0 mm 2 m/s 659 mmHg 55%
    01:00 +18°C° 0 mm 2 m/s 659 mmHg 54%
    02:00 +18°C° 0 mm 2 m/s 658 mmHg 53%
    03:00 +18°C° 0 mm 2 m/s 658 mmHg 53%
    04:00 +19°C° 0 mm 1 m/s 658 mmHg 52%
    05:00 +18°C° 0 mm 1 m/s 658 mmHg 52%
    06:00 +18°C° 0 mm 2 m/s 658 mmHg 49%
    07:00 +19°C° 0 mm 2 m/s 658 mmHg 45%
    08:00 +20°C° 0 mm 3 m/s 659 mmHg 41%
    09:00 +21°C° 0 mm 3 m/s 659 mmHg 38%
    10:00 +22°C° 0 mm 4 m/s 659 mmHg 35%
    11:00 +23°C° 0 mm 5 m/s 659 mmHg 31%
    12:00 +23°C° 0 mm 5 m/s 659 mmHg 32%
    13:00 +23°C° 0 mm 5 m/s 659 mmHg 33%
    14:00 +23°C° 0 mm 5 m/s 658 mmHg 34%
    15:00 +22°C° 0 mm 4 m/s 658 mmHg 38%
    16:00 +21°C° 0 mm 3 m/s 658 mmHg 42%
    17:00 +20°C° 0 mm 2 m/s 657 mmHg 46%
    18:00 +20°C° 0 mm 2 m/s 657 mmHg 48%
    19:00 +19°C° 0 mm 2 m/s 657 mmHg 49%
    20:00 +19°C° 0 mm 2 m/s 657 mmHg 51%
    21:00 +18°C° 0 mm 2 m/s 657 mmHg 51%
    22:00 +18°C° 0 mm 2 m/s 657 mmHg 51%
    23:00 +18°C° 0 mm 2 m/s 657 mmHg 51%

    25 Outubro, Quinta-feira

    Tempo Temperatura Precipitação Vento Pressão Humidade
    00:00 +17°C° 0 mm 3 m/s 656 mmHg 51%
    01:00 +17°C° 0 mm 3 m/s 656 mmHg 51%
    02:00 +17°C° 0 mm 3 m/s 656 mmHg 51%
    03:00 +17°C° 0 mm 3 m/s 655 mmHg 52%
    04:00 +16°C° 0 mm 3 m/s 655 mmHg 54%
    05:00 +16°C° 0 mm 3 m/s 655 mmHg 55%
    06:00 +17°C° 0.2 mm 4 m/s 655 mmHg 54%
    07:00 +17°C° 0.2 mm 5 m/s 655 mmHg 53%
    08:00 +19°C° 0.2 mm 6 m/s 656 mmHg 52%
    09:00 +17°C° 1.6 mm 6 m/s 655 mmHg 56%
    10:00 +17°C° 1.6 mm 6 m/s 655 mmHg 61%
    11:00 +16°C° 1.6 mm 7 m/s 655 mmHg 66%
    12:00 +17°C° 0.4 mm 8 m/s 655 mmHg 62%
    13:00 +18°C° 0.4 mm 9 m/s 654 mmHg 57%
    14:00 +19°C° 0.4 mm 11 m/s 654 mmHg 53%
    15:00 +18°C° 0.1 mm 10 m/s 654 mmHg 59%
    16:00 +17°C° 0.1 mm 9 m/s 654 mmHg 65%
    17:00 +16°C° 0.1 mm 8 m/s 654 mmHg 71%
    18:00 +15°C° 0.2 mm 8 m/s 654 mmHg 73%
    19:00 +15°C° 0.2 mm 8 m/s 654 mmHg 75%
    20:00 +13°C° 0.2 mm 8 m/s 654 mmHg 77%
    21:00 +14°C° 0.3 mm 7 m/s 655 mmHg 78%
    22:00 +14°C° 0.3 mm 7 m/s 655 mmHg 79%
    23:00 +14°C° 0.3 mm 7 m/s 655 mmHg 79%

    26 Outubro, Sexta-feira

    Tempo Temperatura Precipitação Vento Pressão Humidade
    00:00 +14°C° 0.1 mm 7 m/s 655 mmHg 78%
    01:00 +12°C° 0.1 mm 7 m/s 655 mmHg 77%
    02:00 +12°C° 0.1 mm 7 m/s 655 mmHg 76%
    03:00 +12°C° 0.1 mm 7 m/s 655 mmHg 76%
    04:00 +11°C° 0.1 mm 7 m/s 655 mmHg 76%
    05:00 +11°C° 0.1 mm 7 m/s 655 mmHg 76%
    06:00 +11°C° 0.1 mm 8 m/s 656 mmHg 73%
    07:00 +11°C° 0.1 mm 8 m/s 656 mmHg 70%
    08:00 +11°C° 0.1 mm 8 m/s 657 mmHg 67%
    09:00 +11°C° 0.2 mm 8 m/s 657 mmHg 68%
    10:00 +11°C° 0.2 mm 7 m/s 658 mmHg 70%
    11:00 +11°C° 0.2 mm 7 m/s 658 mmHg 72%
    12:00 +11°C° 0 mm 6 m/s 659 mmHg 67%
    13:00 +11°C° 0 mm 6 m/s 659 mmHg 62%
    14:00 +11°C° 0 mm 6 m/s 659 mmHg 58%
    15:00 +12°C° 0 mm 5 m/s 660 mmHg 58%
    16:00 +11°C° 0 mm 4 m/s 660 mmHg 58%
    17:00 +11°C° 0 mm 3 m/s 660 mmHg 58%
    18:00 +10°C° 0 mm 2 m/s 661 mmHg 59%
    19:00 +10°C° 0 mm 2 m/s 661 mmHg 61%
    20:00 +10°C° 0 mm 2 m/s 662 mmHg 62%
    21:00 +9°C° 0 mm 2 m/s 662 mmHg 61%
    22:00 +9°C° 0 mm 2 m/s 662 mmHg 60%
    23:00 +10°C° 0 mm 1 m/s 662 mmHg 59%

    27 Outubro, Sábado

    Tempo Temperatura Precipitação Vento Pressão Humidade
    00:00 +10°C° 0 mm 1 m/s 662 mmHg 57%
    01:00 +9°C° 0 mm 1 m/s 662 mmHg 55%
    02:00 +9°C° 0 mm 1 m/s 662 mmHg 53%
    03:00 +9°C° 0 mm 1 m/s 662 mmHg 52%
    04:00 +9°C° 0 mm 1 m/s 663 mmHg 50%
    05:00 +8°C° 0 mm 1 m/s 663 mmHg 48%
    06:00 +9°C° 0 mm 2 m/s 664 mmHg 44%
    07:00 +10°C° 0 mm 2 m/s 664 mmHg 40%
    08:00 +12°C° 0 mm 2 m/s 665 mmHg 36%
    09:00 +14°C° 0 mm 2 m/s 665 mmHg 32%
    10:00 +15°C° 0 mm 2 m/s 665 mmHg 29%
    11:00 +16°C° 0 mm 2 m/s 666 mmHg 26%
    12:00 +17°C° 0 mm 2 m/s 665 mmHg 24%
    13:00 +17°C° 0 mm 2 m/s 665 mmHg 22%
    14:00 +18°C° 0 mm 2 m/s 665 mmHg 21%
    15:00 +17°C° 0 mm 2 m/s 665 mmHg 23%
    16:00 +16°C° 0 mm 2 m/s 665 mmHg 25%
    17:00 +16°C° 0 mm 3 m/s 664 mmHg 27%
    18:00 +15°C° 0 mm 2 m/s 664 mmHg 27%
    19:00 +15°C° 0 mm 2 m/s 664 mmHg 27%
    20:00 +14°C° 0 mm 2 m/s 664 mmHg 28%
    21:00 +14°C° 0 mm 2 m/s 664 mmHg 27%
    22:00 +13°C° 0 mm 2 m/s 664 mmHg 27%
    23:00 +13°C° 0 mm 2 m/s 664 mmHg 26%

    28 Outubro, Domingo

    Tempo Temperatura Precipitação Vento Pressão Humidade
    00:00 +13°C° 0 mm 2 m/s 664 mmHg 28%
    01:00 +13°C° 0 mm 2 m/s 664 mmHg 31%
    02:00 +13°C° 0 mm 2 m/s 663 mmHg 34%
    03:00 +13°C° 0 mm 2 m/s 664 mmHg 37%
    04:00 +13°C° 0 mm 2 m/s 664 mmHg 41%
    05:00 +13°C° 0 mm 2 m/s 664 mmHg 44%
    06:00 +14°C° 0 mm 2 m/s 664 mmHg 43%
    07:00 +14°C° 0 mm 3 m/s 665 mmHg 41%
    08:00 +16°C° 0 mm 3 m/s 665 mmHg 40%
    09:00 +17°C° 0 mm 3 m/s 665 mmHg 38%
    10:00 +18°C° 0 mm 3 m/s 665 mmHg 37%
    11:00 +19°C° 0 mm 3 m/s 666 mmHg 35%
    12:00 +20°C° 0 mm 3 m/s 665 mmHg 34%
    13:00 +20°C° 0 mm 4 m/s 665 mmHg 34%
    14:00 +21°C° 0 mm 4 m/s 665 mmHg 33%
    15:00 +20°C° 0 mm 4 m/s 664 mmHg 34%
    16:00 +19°C° 0 mm 4 m/s 664 mmHg 34%
    17:00 +18°C° 0 mm 3 m/s 664 mmHg 35%
    18:00 +18°C° 0 mm 3 m/s 664 mmHg 35%
    19:00 +17°C° 0 mm 3 m/s 664 mmHg 35%
    20:00 +17°C° 0 mm 3 m/s 664 mmHg 36%
    21:00 +17°C° 0 mm 3 m/s 664 mmHg 36%
    22:00 +16°C° 0 mm 3 m/s 663 mmHg 36%
    23:00 +16°C° 0 mm 3 m/s 663 mmHg 37%
    Mostrar mais